Home > Weather > Russia > Surgut > Past weeks

Flag for Russia Weather past 2 weeks in Surgut, Russia

28 °F

Low clouds.

Feels Like: 22 °F
Forecast: 10 / 24 °F
Wind: 6 mph from Southwest

Location: Surgut Airport

Current Time: Dec 1, 2015 at 9:44:54 PM

Latest Report: Dec 1, 2015 at 9:00 PM

Visibility: 4 mi

Pressure: 30.15 "Hg

Humidity: 93%

Dew point: 27 °F

Location of SurgutLocation

Historic Weather in Surgut — Graph


Surgut temperature yesterday

Maximum temperature yesterday: 32 °F (at 11:30 AM)
Minimum temperature yesterday: 12 °F (at 12:00 AM)
Average temperature yesterday: 25 °F

Past Weeks' High & Low Weather Summary

High32 °F (Nov 30, 11:30 AM)100% (Nov 28, 12:30 PM)30.95 "Hg (Nov 28, 12:30 PM)
Low-17 °F (Nov 21, 1:30 AM)76% (Nov 17, 11:00 PM)29.21 "Hg (Nov 28, 10:30 PM)
Average8 °F86%30.24 "Hg
* Reported Nov 16 8:00 PM — Dec 1 8:30 PM, Surgut, Weather by CustomWeather, © 2015

Note: Actual official high and low records may vary slightly from our data, if they occured in-between our weather recording intervals... More about our weather records


Surgut weather history for previous 24 hours

Time TempWeatherWind HumidityBarometerVisibility
8:30 PM
Tue, Dec 1
28 °FLow clouds.6 mph93%30.15 "Hg4 mi
8:00 PM28 °FLow clouds.8 mph93%30.15 "Hg4 mi
7:30 PM28 °FLight snow. Low clouds.8 mph93%30.15 "Hg4 mi
7:00 PM28 °FLight snow. Low clouds.10 mph93%30.15 "Hg4 mi
6:30 PM28 °FLow clouds.6 mph93%30.15 "Hg4 mi
6:00 PM28 °FLow clouds.6 mph93%30.15 "Hg4 mi
5:30 PM28 °FLow clouds.8 mph93%30.15 "Hg4 mi
5:00 PM28 °FLow clouds.8 mph93%30.15 "Hg4 mi
4:30 PM28 °FLow clouds.8 mph100%30.15 "Hg4 mi
4:00 PM28 °FLow clouds.8 mph100%30.15 "Hg4 mi
3:30 PM28 °FLight snow. Low clouds.8 mph100%30.15 "Hg4 mi
3:00 PM28 °FLight snow. Low clouds.13 mph100%30.15 "Hg4 mi
2:30 PM28 °FLight snow. Low clouds.10 mph100%30.12 "Hg4 mi
2:00 PM28 °FLight snow. Low clouds.8 mph100%30.12 "Hg4 mi
1:30 PM30 °FLow clouds.13 mph93%30.12 "Hg4 mi
1:00 PM28 °FLight snow. Low clouds.13 mph93%30.12 "Hg4 mi
12:30 PM28 °FLow clouds.10 mph100%30.12 "Hg4 mi
12:00 PM30 °FLow clouds.8 mph93%30.12 "Hg4 mi
11:30 AM28 °FIce fog.10 mph100%30.12 "Hg3 mi
11:00 AM28 °FIce fog.8 mph100%30.12 "Hg3 mi
10:30 AM28 °FLow clouds.8 mph100%30.12 "Hg4 mi
10:00 AM28 °FLow clouds.8 mph100%30.12 "Hg4 mi
9:30 AM28 °FLow clouds.8 mph100%30.12 "Hg4 mi
9:00 AM28 °FLow clouds.6 mph100%30.09 "Hg4 mi
8:30 AM28 °FLow clouds.8 mph100%30.12 "Hg4 mi
8:00 AM28 °FLow clouds.8 mph100%30.12 "Hg4 mi
7:30 AM28 °FLow clouds.8 mph100%30.09 "Hg4 mi
7:00 AM28 °FLow clouds.8 mph100%30.09 "Hg4 mi
5:30 AM28 °FLow clouds.6 mph100%30.12 "Hg4 mi
4:30 AM28 °FLow clouds.6 mph100%30.12 "Hg4 mi
4:00 AM28 °FLow clouds.6 mph100%30.12 "Hg4 mi
3:30 AM28 °FSleet. Overcast.8 mph100%30.12 "Hg1 mi
3:00 AM30 °FIce fog.8 mph93%30.12 "Hg2 mi
2:30 AM30 °FLow clouds.6 mph100%30.12 "Hg4 mi
2:00 AM30 °FLow clouds.6 mph100%30.12 "Hg4 mi
1:30 AM30 °FLow clouds.6 mph100%30.12 "Hg4 mi
1:00 AM30 °FLow clouds.6 mph100%30.12 "Hg4 mi
12:30 AM30 °FLow clouds.1 mph100%30.12 "Hg4 mi
12:00 AM30 °FLow clouds.3 mph93%30.12 "Hg4 mi
11:30 PM
Mon, Nov 30
28 °FIce fog.3 mph100%30.09 "Hg3 mi
11:00 PM28 °FIce fog.3 mph100%30.09 "Hg3 mi
10:30 PM28 °FIce fog.3 mph100%30.12 "Hg2 mi
10:00 PM28 °FIce fog.3 mph100%30.09 "Hg2 mi
9:30 PM28 °FIce fog.3 mph93%30.09 "Hg2 mi
9:00 PM28 °FIce fog.6 mph93%30.09 "Hg1 mi
Weather by CustomWeather, © 2015

See weather overviewHow to use our weather pages